Regional Weather Roundup
Issued by NWS

Home | Current Version | Previous Version | Text Only | Print | Product List | Glossary On
Versions: 1 2 3 4 5 6 7 8 9 10 11 12 13 14 15 16 17 18 19 20 21 22 23 24 25 26 27 28 29 30 31 32 33 34 35 36 37 38 39 40 41 42 43 44 45 46 47 48 49 50
000
ASUS43 KTOP 260908
RWRKS

WEATHER ROUNDUP FOR KANSAS
NATIONAL WEATHER SERVICE GOODLAND KS
400 AM CDT FRI AUG 26 2016

NOTE:  "FAIR" INDICATES FEW OR NO CLOUDS BELOW 12,000 FEET WITH NO
SIGNIFICANT WEATHER AND/OR OBSTRUCTIONS TO VISIBILITY.

KSZ001>006-013>018-027>032-041>047-261000-
NORTHWEST KANSAS

CITY           SKY/WX    TMP DP  RH WIND       PRES   REMARKS
GOODLAND       MOCLDY    55  52  89 SE5       30.18F
HAYS           FAIR      63  54  72 E6        30.13F
HILL CITY      FAIR      58  57  97 CALM      30.15S
RUSSELL        FAIR      62  60  93 NE6       30.11S
$$

KSZ061>065-074>080-084>089-261000-
SOUTHWEST KANSAS

CITY           SKY/WX    TMP DP  RH WIND       PRES   REMARKS
DODGE CITY     CLOUDY    65  62  90 E9        30.13S
ELKHART          N/A     62  57  83 W2          N/A
GARDEN CITY    MOCLDY    61  59  93 NE6       30.14S
GREAT BEND     CLOUDY    64  55  72 E8        30.12S
LIBERAL        CLOUDY    64  61  88 S3        30.16S
PRATT          HVY RAIN  62  61  97 SE3       30.13S
$$

KSZ066>073-081>083-090>101-261000-
SOUTHEAST KANSAS

CITY           SKY/WX    TMP DP  RH WIND       PRES   REMARKS
CHANUTE        FAIR      69  66  90 E5        30.07F
COFFEYVILLE    FAIR      70  69  97 CALM      30.07F
HUTCHINSON     HVY RAIN  67  64  90 SE8       30.10F FOG
MEDICINE LODGE   N/A     68  67  96 NW9       30.14R
NEWTON         RAIN      66  66 100 SE7       30.10S
PARSONS        FAIR      70  68  93 CALM      30.07F
WICHITA INTL   LGT RAIN  71  67  87 SW10      30.08S
WICHITA JABRA  LGT RAIN  71  69  93 SW7       30.09R
WICHITA MCCONL LGT RAIN  71  67  89 W7        30.08S
WINFIELD       FAIR      69  68  96 SW7       30.08R
$$

KSZ007>012-019>026-033>040-048>060-102>105-261000-
NORTHEAST KANSAS

CITY           SKY/WX    TMP DP  RH WIND       PRES   REMARKS
CONCORDIA      FAIR      61  59  93 E3        30.12S
EMPORIA        LGT RAIN  67  65  93 CALM      30.09S
LAWRENCE       CLOUDY    70  70 100 E3        30.08F THUNDER FOG
MANHATTAN      MOCLDY    67  62  84 E7        30.09F
MARYSVILLE     MOCLDY    61  59  94 N5        30.12F
OLATHE IND     TSTM      69  68  96 E5        30.11R FOG
OLATHE EXE     TSTM      68  68 100 NW7       30.10R FOG
SALINA         LGT RAIN  68  62  81 NE6       30.11R
TOPEKA BILLARD TSTM      67  66  97 NW3       30.09S
TOPEKA FORBES  RAIN      69  67  93 SE5       30.09S FOG
$$




USA.gov is the U.S. government's official web portal to all federal, state and local government web resources and services.